Home   Weather   Tijuana   Past weeks
Flag for Mexico

Past Weather in Tijuana, Baja California, Mexico — Yesterday and Last 2 Weeks

Now
63 °F

Clear.


Feels Like: 63 °F
Forecast: 82 / 56 °F
Wind: 7 mph from Southeast

Location: Tijuana International Airport

Current Time: Oct 16, 2019 at 8:17:22 am

Latest Report: Oct 16, 2019 at 6:41 am


Visibility: 6 mi

Pressure: 29.95 "Hg

Humidity: 56%

Dew Point: 46 °F

Location of TijuanaLocation

Past Weather in Tijuana — Graph

°F

Tijuana Temperature Yesterday

Maximum temperature yesterday: 77 °F (at 2:46 pm)
Minimum temperature yesterday: 54 °F (at 6:54 am)
Average temperature yesterday: 64 °F

High & Low Weather Summary for the Past Weeks

 TemperatureHumidityPressure
High86 °F (Oct 7, 10:41 am)100% (Oct 5, 9:40 pm)30.09 "Hg (Oct 5, 9:40 pm)
Low52 °F (Oct 4, 4:45 am)5% (Oct 11, 10:44 am)29.85 "Hg (Oct 9, 1:44 pm)
Average65 °F68%29.95 "Hg
* Reported Oct 1 6:50 am — Oct 16 6:41 am, Tijuana. Weather by CustomWeather, © 2019

Note: Actual official high and low records may vary slightly from our data, if they occured in-between our weather recording intervals... More about our weather records

Advertising

Tijuana Weather History for the Previous 24 Hours

Scroll right to see more
 ConditionsComfort  
Time TempWeatherWind HumidityBarometerVisibility
6:41 am
Wed, Oct 16
63 °FClear.7 mph56%29.95 "Hg6 mi
5:40 am63 °FClear.7 mph59%29.94 "Hg7 mi
4:45 am61 °FClear.6 mph72%29.93 "Hg6 mi
3:41 am57 °FClear.3 mph100%29.94 "Hg6 mi
2:42 am61 °FClear.No wind100%29.96 "Hg5 mi
1:41 am59 °FClear.No wind100%30.00 "Hg5 mi
12:44 am59 °FPassing clouds.No wind94%29.99 "Hg5 mi
11:42 pm
Tue, Oct 15
61 °FClear.3 mph94%29.99 "Hg5 mi
10:42 pm61 °FClear.No wind94%30.00 "Hg6 mi
9:42 pm63 °FClear.No wind94%29.99 "Hg6 mi
8:42 pm63 °FClear.No wind94%29.98 "Hg7 mi
6:40 pm64 °FClear.9 mph88%29.97 "Hg7 mi
5:40 pm68 °FSunny.7 mph78%29.95 "Hg8 mi
4:46 pm70 °FSunny.12 mph73%29.94 "Hg8 mi
3:41 pm75 °FSunny.12 mph61%29.93 "Hg8 mi
2:46 pm77 °FSunny.12 mph51%29.94 "Hg10 mi
1:46 pm73 °FSunny.12 mph57%29.99 "Hg10 mi
12:54 pm73 °FSunny.12 mph57%29.99 "Hg10 mi
11:40 am73 °FSunny.8 mph50%30.01 "Hg10 mi
10:47 am72 °FSunny.No wind53%30.02 "Hg8 mi
9:40 am68 °FSunny.No wind53%30.04 "Hg8 mi
8:41 am64 °FSunny.No wind60%30.04 "Hg8 mi
Weather by CustomWeather, © 2019

See weather overview